Theta_e
332 333 335 335 334 335 334 334 334 333 333 333 332 332 330 329 325 316 318 320 326 330 326 316 314 326 317 312 310 311 315 320 325 324 324 325 325 326 323 325 325 324 324
333 332 335 335 334 334 332 328 327 327 327 328 329 332 332 328 324 313 322 324 330 330 322 313 310 309 309 310 312 314 313 314 314 315 321 324 326 325 324 324 324 324 324
332 332 334 334 334 334 330 330 330 330 329 326 317 317 322 322 315 312 326 329 329 330 322 315 311 311 312 313 314 314 314 314 314 315 320 326 324 323 322 324 323 324 325
332 332 331 333 334 333 331 332 331 331 331 329 315 320 321 320 311 317 327 326 329 328 322 313 313 313 313 314 314 314 314 314 314 317 322 327 327 325 325 324 325 326 328
333 333 330 328 331 331 331 332 332 332 329 328 315 325 323 313 316 317 327 326 329 327 315 313 313 313 314 314 314 314 315 317 319 324 325 326 328 326 326 326 326 326 327
334 332 324 322 329 330 332 332 332 331 329 328 318 320 318 313 313 318 322 323 329 327 314 314 313 314 314 314 315 316 317 320 326 328 327 326 326 326 327 325 326 325 325
334 324 324 325 328 330 332 332 333 331 329 328 320 320 318 313 312 313 317 320 327 323 314 313 314 314 314 314 314 315 316 317 322 324 325 326 325 325 325 323 324 323 323
329 322 323 325 327 330 332 333 332 329 329 329 326 314 314 313 313 313 315 315 317 319 314 314 314 314 314 314 314 314 315 315 317 320 325 325 325 323 325 323 321 321 319
326 324 320 322 326 329 331 331 330 328 328 328 325 318 312 313 313 313 314 314 315 315 315 315 315 314 314 314 314 314 315 315 321 324 326 326 325 325 323 322 320 319 310
329 324 320 317 322 326 328 329 327 327 327 327 322 314 312 312 313 314 314 315 315 315 315 315 315 315 314 314 315 315 314 314 319 323 324 324 324 324 322 320 319 311 302
330 324 320 316 317 321 322 322 323 324 324 324 321 317 312 314 314 315 316 315 316 316 316 315 315 315 315 315 315 315 315 315 317 320 322 320 320 321 320 318 310 301 301
332 325 318 316 316 316 317 318 324 325 321 321 319 319 315 313 314 315 314 315 315 316 316 315 316 315 315 315 316 316 317 316 317 317 317 316 317 319 317 313 304 300 300
333 327 320 318 319 317 316 316 318 320 318 319 319 315 316 313 314 315 315 315 316 316 316 316 316 316 316 316 316 317 317 317 317 317 317 317 317 318 318 313 309 301 299
333 331 323 321 321 319 315 315 315 316 317 316 315 314 314 313 313 314 315 316 316 316 316 316 317 316 316 316 317 317 317 318 318 318 318 318 317 318 316 315 313 305 299
332 332 330 324 322 321 319 316 315 315 314 313 312 312 312 312 312 313 314 315 316 316 316 316 316 316 316 316 317 317 317 318 317 317 317 316 317 316 316 316 314 310 303
331 332 332 330 324 322 322 319 315 315 315 312 311 311 311 312 312 312 313 314 315 315 316 316 316 316 316 317 317 317 318 318 317 317 316 316 315 315 314 314 315 311 304
329 331 331 331 329 324 322 321 319 315 315 314 312 311 311 311 312 312 313 314 314 315 315 316 316 316 317 317 318 318 318 319 317 317 317 316 316 315 315 313 313 314 304
328 331 331 330 331 329 325 321 320 317 315 314 312 311 311 312 312 313 314 314 315 315 316 317 317 317 318 318 319 319 318 319 319 318 317 317 315 315 315 314 314 314 313
324 329 331 330 330 330 329 325 320 318 317 314 313 312 312 313 314 315 315 315 316 316 317 318 319 319 319 319 320 319 319 320 320 319 318 317 316 315 315 315 314 314 313
325 326 330 331 330 330 330 328 324 318 316 316 314 313 313 314 315 315 316 316 316 317 318 318 319 320 321 321 321 320 320 320 320 319 318 317 317 315 315 314 314 314 314
326 325 326 330 330 330 330 330 329 325 318 315 315 314 314 315 315 316 316 316 316 317 318 319 320 320 321 322 322 322 321 321 321 320 319 318 317 317 316 315 315 315 314
323 325 324 326 330 330 330 330 331 329 326 319 315 314 314 314 315 316 317 317 317 317 318 319 320 320 321 322 322 322 322 321 321 320 320 319 318 317 317 317 316 316 316
323 322 325 323 323 329 330 331 331 330 329 327 323 316 314 314 314 315 316 317 318 318 318 319 319 320 321 321 322 322 322 322 322 320 320 320 320 320 320 318 318 318 317
326 322 322 324 323 322 327 331 331 330 331 329 327 324 319 316 316 316 316 316 317 318 318 318 319 319 320 321 322 322 322 322 322 322 322 321 321 321 320 321 320 320 319
328 327 326 323 324 323 323 324 329 330 330 331 330 329 325 325 323 319 317 317 317 318 318 318 319 319 320 320 321 321 321 322 322 323 322 321 322 322 322 323 323 323 322
326 327 327 325 323 323 323 322 322 325 329 330 330 330 329 326 324 325 325 324 322 320 319 319 319 319 320 320 320 321 321 322 322 322 322 322 322 321 321 322 322 321 321
Wind_Speed
14 12 13 13 13 15 12 12 13 13 12 12 11 9 7 5 5 6 9 11 17 15 17 17 18 16 17 18 19 20 19 20 20 20 20 20 21 20 21 21 20 19 19
15 15 14 14 13 12 13 10 10 9 9 7 6 7 6 4 5 6 11 14 18 12 15 16 17 18 19 19 21 20 18 17 16 18 20 20 18 18 18 18 19 16 17
14 16 14 12 12 14 11 9 8 7 6 5 4 7 7 7 7 9 14 15 19 14 13 15 18 19 19 19 19 18 18 17 16 17 19 16 16 16 16 18 16 16 17
15 15 13 12 12 11 9 8 6 4 3 3 4 9 10 10 9 13 15 15 16 14 13 17 18 18 18 19 17 17 16 16 14 16 17 17 14 17 17 17 15 14 15
16 13 12 12 12 11 10 7 5 3 3 2 6 11 11 11 12 14 15 15 16 14 15 17 17 16 17 16 15 14 15 15 14 15 17 16 10 13 11 12 10 11 10
17 13 13 13 12 11 10 8 6 4 2 4 10 11 12 12 13 14 14 16 15 14 15 16 16 15 15 14 13 13 12 12 13 13 15 14 11 11 13 12 10 7 5
17 14 13 13 13 11 11 9 7 2 1 3 8 11 11 12 12 12 13 14 15 13 14 15 14 14 13 12 12 11 11 12 12 11 11 11 12 8 6 2 2 4 8
16 15 14 14 14 13 12 11 8 4 5 7 4 8 10 11 11 12 12 12 13 12 12 13 12 12 11 11 10 10 11 11 11 10 9 9 7 3 3 4 7 6 10
16 15 14 14 15 14 14 11 9 7 10 9 5 5 9 10 11 11 11 11 11 11 11 11 10 10 9 8 8 9 10 10 10 11 10 8 6 4 4 9 11 13 12
16 15 15 15 15 16 16 14 12 11 11 9 8 6 7 7 10 12 12 12 11 10 10 9 8 7 7 7 7 8 9 9 8 7 6 5 4 4 8 11 13 13 9
21 18 17 17 16 16 16 15 14 15 13 11 9 8 10 10 11 12 13 12 11 10 9 7 6 6 5 5 4 6 7 7 7 6 4 2 5 7 11 12 12 10 9
25 22 20 18 17 17 17 16 16 16 14 11 9 13 12 11 11 12 11 9 8 6 6 4 3 3 4 3 3 4 5 6 6 4 3 3 4 8 11 9 11 11 9
25 23 22 20 19 18 18 18 18 18 15 14 11 13 14 12 12 11 9 9 8 7 5 4 1 1 1 1 1 2 4 6 6 5 5 5 5 8 11 10 12 11 11
25 23 22 22 20 19 18 18 17 18 17 15 13 13 15 14 12 12 11 10 8 8 6 3 2 2 1 1 2 2 3 4 5 6 6 5 4 8 13 13 13 12 11
26 25 24 23 22 21 20 20 19 18 17 16 17 16 15 15 14 13 12 11 10 9 8 6 5 4 3 3 3 3 3 3 5 7 8 8 8 10 14 15 15 14 13
28 27 25 25 24 23 22 20 19 18 17 18 17 18 17 16 15 14 14 13 12 11 10 8 7 6 5 5 5 5 5 5 4 5 8 10 12 12 15 15 16 15 15
29 28 28 26 25 26 24 21 21 19 19 19 19 19 19 18 17 16 15 14 13 13 11 10 9 8 7 6 7 7 8 7 6 7 8 11 13 14 16 19 15 15 14
29 32 30 28 27 26 26 24 23 21 21 21 21 21 21 20 19 18 17 16 15 14 13 12 10 9 9 9 9 9 10 11 11 11 12 12 12 15 15 17 15 14 14
27 31 32 31 29 28 27 26 25 23 23 23 24 23 23 22 21 20 18 18 17 16 15 14 12 12 12 11 12 12 13 14 14 16 15 17 16 14 14 18 18 17 15
27 29 32 32 30 30 28 27 28 27 27 27 27 26 25 24 23 22 22 21 20 19 18 16 15 15 14 13 14 16 16 15 16 17 17 19 19 18 17 19 20 21 20
31 31 33 35 34 33 33 33 32 32 31 31 31 29 27 27 26 25 23 23 23 22 19 18 18 18 18 17 16 19 20 19 20 21 22 21 18 19 22 24 24 25 26
34 35 35 37 37 38 37 35 34 33 33 32 32 32 31 30 29 27 27 26 25 24 23 23 22 21 21 21 17 16 13 15 19 16 17 17 18 19 22 24 26 29 30
38 38 39 38 38 41 40 38 37 36 35 35 35 34 34 32 31 31 29 28 28 26 27 25 25 25 24 23 22 18 8 8 11 17 17 18 22 22 24 27 29 30 32
42 40 40 40 41 42 42 43 44 43 42 39 36 36 35 34 34 33 31 30 30 30 30 29 28 27 27 27 27 27 27 27 18 19 20 22 28 32 31 31 34 35 35
43 43 46 43 44 45 45 44 46 45 44 40 37 38 36 34 34 33 33 33 33 33 31 31 31 30 31 31 31 29 30 29 31 34 34 34 29 37 37 36 38 39 41
45 44 45 48 48 47 47 45 46 45 47 45 43 43 38 35 35 35 34 35 35 34 34 33 33 33 33 33 33 33 34 28 26 31 35 40 37 33 31 38 37 35 34
Wind_Direction
165 158 142 138 132 128 135 130 130 130 130 130 136 140 137 117 86 87 108 109 106 104 96 93 101 100 91 90 84 85 87 89 89 83 81 73 69 69 66 71 74 73 75
165 163 157 149 145 148 146 147 140 144 143 152 167 179 172 144 117 123 116 101 102 111 96 90 95 92 86 86 84 81 80 77 78 83 81 74 75 77 77 70 64 61 70
163 159 158 160 159 156 159 161 160 160 150 151 173 174 176 159 142 130 115 112 113 114 99 94 93 92 93 88 85 81 76 75 75 77 81 75 66 66 71 86 78 75 68
161 160 163 159 162 165 174 169 158 159 145 128 134 135 141 140 137 128 121 116 113 114 104 94 97 95 92 87 83 80 77 75 73 78 77 71 63 63 69 71 73 66 68
168 168 172 170 173 173 175 169 158 152 149 150 138 133 138 134 130 129 125 115 117 110 103 102 100 96 91 86 81 81 79 77 75 67 75 81 73 54 51 69 69 80 92
171 179 175 178 178 176 171 170 161 153 147 118 137 141 137 137 138 130 128 118 119 113 106 103 99 94 87 84 83 81 77 74 76 74 71 64 70 73 89 81 89 83 67
174 184 177 179 177 179 176 172 175 165 134 146 137 142 133 139 138 134 131 124 123 119 107 103 98 93 89 85 81 78 74 70 70 63 63 65 78 81 81 51 31 345 325
182 184 183 180 182 183 180 176 186 190 181 166 146 149 143 142 138 137 132 130 125 124 105 103 99 94 89 84 81 74 70 70 70 75 72 82 83 64 44 346 341 334 327
189 186 189 189 189 189 189 190 200 199 194 203 194 169 157 149 143 143 142 135 131 128 117 109 102 93 87 83 77 71 70 70 76 83 79 91 73 57 356 333 329 327 335
196 197 191 195 194 196 195 200 201 192 197 204 195 169 161 153 153 151 147 149 144 133 124 116 103 96 89 79 72 65 62 66 75 79 73 79 35 348 321 319 324 329 347
199 202 197 197 201 201 207 200 201 197 198 199 188 177 168 167 164 157 159 157 152 146 134 116 103 90 83 75 66 58 56 60 63 65 50 19 337 304 304 322 329 345 356
200 201 201 199 202 207 209 203 194 200 198 197 205 198 184 180 174 173 165 164 154 144 133 125 107 92 79 62 45 43 44 48 46 39 2 342 333 312 314 336 349 350 355
204 204 202 200 204 207 208 202 199 204 208 209 216 214 199 192 184 178 172 171 170 167 172 172 159 82 72 57 12 14 23 26 23 18 3 351 330 296 313 331 341 343 350
211 212 208 204 207 205 208 209 209 211 213 216 216 210 205 201 193 187 184 184 186 191 202 219 252 257 262 277 302 333 353 3 12 10 359 357 314 298 316 325 328 332 339
214 214 215 213 211 210 210 212 212 212 214 215 212 208 204 203 198 197 195 193 197 206 214 226 244 254 258 269 290 300 315 331 349 3 354 357 344 319 317 318 321 323 329
217 218 220 220 217 216 215 217 215 214 211 209 211 210 208 206 205 203 204 202 206 213 219 228 238 249 256 266 274 273 279 292 317 333 336 340 335 330 324 308 313 315 320
220 219 222 223 222 223 220 218 219 216 213 211 211 211 210 208 209 209 211 210 214 218 224 235 241 248 256 265 267 272 271 277 282 290 306 319 318 312 331 343 317 320 318
221 220 221 224 224 226 226 221 221 220 218 216 216 215 212 210 210 212 214 215 219 223 229 237 243 249 255 260 263 269 269 271 269 275 280 287 299 315 312 329 337 331 316
224 222 221 225 224 227 229 227 225 225 224 222 220 220 217 215 215 218 218 219 223 225 231 238 246 250 255 259 263 267 270 269 279 281 280 286 286 291 296 302 305 302 303
225 224 225 227 227 227 228 230 229 227 226 225 224 223 222 220 221 221 222 224 227 230 233 238 245 251 254 257 267 269 268 276 293 288 282 301 284 281 282 290 293 294 295
230 224 224 225 227 227 225 226 227 228 226 226 227 226 223 224 225 226 227 228 231 237 239 242 245 250 256 258 261 272 277 275 277 281 284 283 290 288 280 281 285 288 287
235 230 224 224 225 229 229 231 232 233 232 231 231 230 227 226 228 230 231 233 235 239 241 243 246 252 254 256 260 266 280 287 288 287 287 287 289 284 288 288 289 286 286
234 233 229 227 227 227 229 231 232 235 236 234 233 233 230 231 232 233 235 237 239 241 245 247 251 252 256 261 258 252 262 268 283 296 290 287 293 292 297 290 289 287 288
239 236 236 232 229 229 227 229 231 233 234 236 236 236 235 233 234 236 238 241 243 245 248 250 253 255 257 256 262 259 260 262 273 290 292 289 289 289 292 291 296 297 295
240 238 237 235 231 230 228 230 232 235 239 240 241 242 240 239 240 242 242 244 245 247 250 252 255 255 258 260 261 266 271 270 271 269 277 284 282 293 294 293 294 295 295
241 238 237 237 234 233 232 231 233 236 236 238 239 243 243 242 242 242 243 244 247 250 252 255 257 259 260 262 264 265 267 262 268 274 276 283 287 289 287 296 298 307 307